Hourly Data Report for October 03, 2019

All times are specified in Local Standard Time (LST). Add 1 hour to adjust for Daylight Saving Time where and when it is observed.

EUREKA CLIMATE
NUNAVUT
Current Station Operator: ECCC - MSC

79°59'21.000" N
85°56'02.000" W
10.00 m
2401199
71613
NEK

Download Data

Hourly Data (October 2019)
Hourly Data Report for October 3, 2019
TIME Temp Definition
°C
Dew Point Definition
°C
Rel Hum Definition
%
Wind Dir Definition
10's deg

Wind Spd Definition
km/h
Visibility Definition
km
Stn Press Definition
kPa
Hmdx Definition


Wind Chill Definition


Weather Definition


00:00 -6.9 -7.5 96 2 15   100.91   -13 LegendNANA
01:00 -7.0 -7.1 99 2 12   100.94   -12 LegendNANA
02:00 -6.9 -7.0 99 2 11   100.95   -12 LegendNANA
03:00 -7.2 -7.4 99 2 13   100.95   -13 LegendNANA
04:00 -7.8 -8.2 97 2 14   100.94   -14 LegendNANA
05:00 -7.7 -8.2 96 2 10   100.92   -13 LegendNANA
06:00 -6.7 -7.2 97 36 3   100.91   -8 LegendNANA
07:00 -7.4 -7.7 97 2 10   100.89   -12 LegendNANA
08:00 -7.2 -7.3 99 2 11   100.86   -12 LegendNANA
09:00 -6.8 -7.1 98 10 4   100.82   -9 LegendNANA
10:00 -8.6 -9.1 97 6 4   100.79   -11 LegendNANA
11:00 -9.6 -10.2 96 3 6   100.76   -13 LegendNANA
12:00 -8.8 -9.2 97 1 8   100.69   -13 LegendNANA
13:00 -7.8 -8.2 97 34 2   100.63   -9 LegendNANA
14:00 -6.3 -6.6 98 35 5   100.58   -9 LegendNANA
15:00 -4.6 -4.8 99 33 4   100.52   -6 LegendNANA
16:00 -3.5 -4.1 96 30 10   100.46   -7 LegendNANA
17:00 -3.4 -5.0 88 30 16   100.42   -9 LegendNANA
18:00 -3.1 -4.9 88 29 12   100.36   -8 LegendNANA
19:00 -2.5 -4.2 88 28 15   100.28   -7 LegendNANA
20:00 -3.1 -4.4 91 28 20   100.23   -9 LegendNANA
21:00 -3.2 -4.6 90 28 18   100.18   -9 LegendNANA
22:00 -2.9 -4.2 91 28 22   100.13   -9 LegendNANA
23:00 -2.7 -4.1 91 31 8   100.08   -6 LegendNANA

Notes on Data Quality.

Legend

  • E = Estimated
  • M = Missing
  • NA = Not Available
Date modified: